TimeCST,TemperatureF,Dew PointF,Humidity,Sea Level PressureIn,VisibilityMPH,Wind Direction,Wind SpeedMPH,Gust SpeedMPH,PrecipitationIn,Events,Conditions,WindDirDegrees,DateUTC
12:54 AM,39.9,32.0,73,30.23,9.0,South,4.6,-,N/A,,Mostly Cloudy,170,2012-11-19 06:54:00
1:54 AM,42.1,33.1,70,30.22,9.0,South,6.9,-,N/A,,Overcast,170,2012-11-19 07:54:00
2:54 AM,43.0,34.0,71,30.20,9.0,SSE,6.9,-,N/A,,Overcast,160,2012-11-19 08:54:00
3:54 AM,41.0,33.1,73,30.19,8.0,South,6.9,-,N/A,,Partly Cloudy,170,2012-11-19 09:54:00
4:54 AM,43.0,33.1,68,30.20,9.0,SSE,5.8,-,N/A,,Overcast,150,2012-11-19 10:54:00
5:54 AM,41.0,33.1,73,30.19,8.0,SSE,5.8,-,N/A,,Partly Cloudy,160,2012-11-19 11:54:00
6:54 AM,41.0,33.1,73,30.19,8.0,SSE,4.6,-,N/A,,Scattered Clouds,160,2012-11-19 12:54:00
7:54 AM,42.1,34.0,73,30.18,8.0,SE,3.5,-,N/A,,Scattered Clouds,140,2012-11-19 13:54:00
8:54 AM,44.1,34.0,68,30.19,8.0,South,9.2,-,N/A,,Mostly Cloudy,170,2012-11-19 14:54:00
9:54 AM,46.0,35.1,66,30.18,9.0,SSE,10.4,-,N/A,,Overcast,160,2012-11-19 15:54:00
10:54 AM,46.9,35.1,63,30.17,9.0,SSE,8.1,-,N/A,,Overcast,160,2012-11-19 16:54:00
11:54 AM,48.9,36.0,61,30.14,10.0,SSE,12.7,-,N/A,,Overcast,150,2012-11-19 17:54:00
12:54 PM,48.0,36.0,63,30.13,10.0,South,10.4,-,N/A,,Overcast,170,2012-11-19 18:54:00
1:54 PM,48.0,37.9,68,30.11,9.0,SSE,6.9,-,N/A,,Overcast,160,2012-11-19 19:54:00
2:54 PM,48.0,36.0,63,30.10,10.0,SSE,6.9,-,N/A,,Overcast,160,2012-11-19 20:54:00
3:54 PM,46.0,37.0,71,30.10,9.0,SE,4.6,-,N/A,,Overcast,130,2012-11-19 21:54:00
4:54 PM,46.0,37.9,73,30.09,10.0,ESE,4.6,-,N/A,,Overcast,120,2012-11-19 22:54:00
5:54 PM,45.0,37.9,76,30.11,9.0,South,4.6,-,N/A,,Overcast,170,2012-11-19 23:54:00
6:54 PM,44.1,37.0,76,30.11,9.0,South,4.6,-,N/A,,Overcast,180,2012-11-20 00:54:00
7:54 PM,44.1,37.0,76,30.10,8.0,Calm,Calm,-,N/A,,Overcast,0,2012-11-20 01:54:00
8:54 PM,44.1,36.0,73,30.09,8.0,Calm,Calm,-,N/A,,Overcast,0,2012-11-20 02:54:00
9:54 PM,43.0,37.0,80,30.09,7.0,Calm,Calm,-,N/A,,Overcast,0,2012-11-20 03:54:00
10:54 PM,43.0,36.0,76,30.08,7.0,Calm,Calm,-,N/A,,Overcast,0,2012-11-20 04:54:00
11:54 PM,42.1,37.0,82,30.08,7.0,Calm,Calm,-,N/A,,Overcast,0,2012-11-20 05:54:00